[[{"header":{"parameterUnit":"m.s-1","parameterCategory":1,"la1":30.2991,"la2":30.254,"lo1":-89.0895,"lo2":-89.0444,"dy":0.0017,"dx":0.0017,"nx":28,"ny":28,"refTime":"2025-03-13T03:00:00:Z","depth":0,"parameterNumber":2,"parameterNumberName":"U-component_of_WINDS"},"data":[0,0,0,0,0,0,0,0,0,0,0,0,0,0,0,0,0,0,0,0,0,0,0,0,0,0,0,0,0,0,0,0,0,0,0,0,0,0,0,0,0,0,0,0,0,0,0,0,0,0,0,0,0,0,0,0,0,0,-0.3672,-0.3672,0,-0.3607,-0.3606,-0.3605,-0.3587,-0.3587,-0.3587,-0.3588,-0.3517,-0.3515,-0.3512,0,0,0,0,0,0,0,0,0,0,0,0,0,-0.3779,-0.3777,-0.3673,-0.3672,-0.3671,-0.3607,-0.3606,-0.3605,-0.3587,-0.3587,-0.3587,-0.3588,-0.3518,-0.3515,-0.3512,0,0,0,0,0,0,0,0,0,0,0,0,0,-0.3725,-0.3776,-0.3673,-0.3654,-0.3652,-0.3607,-0.3606,-0.3605,-0.3586,-0.3587,-0.3588,-0.3588,-0.3518,-0.3515,-0.3512,-0.348,0,0,-0.3502,-0.35,0,0,0,0,0,0,0,0,-0.3728,-0.3721,-0.3658,-0.3655,-0.3653,-0.3605,-0.3617,-0.3563,-0.3586,-0.3611,-0.3588,-0.3588,-0.3546,-0.354,-0.3526,-0.3476,-0.3473,-0.3501,-0.3499,-0.3498,-0.3497,0,0,0,0,0,0,0,-0.3732,-0.3724,-0.3646,-0.3657,-0.3654,-0.3648,-0.3641,-0.3607,-0.3576,-0.3609,-0.3608,-0.36,-0.3544,-0.353,-0.3525,-0.3472,-0.3501,-0.3498,-0.3496,-0.3495,-0.3392,-0.3391,0,0,0,0,0,0,-0.3739,-0.3727,-0.3648,-0.3644,-0.3693,-0.3646,-0.3638,-0.362,-0.3576,-0.357,-0.36,-0.36,-0.3535,-0.3528,-0.3522,-0.3481,-0.3498,-0.3495,-0.3493,-0.3392,-0.3392,-0.3391,0,0,0,0,0,0,-0.3741,-0.3732,-0.3651,-0.3685,-0.3674,-0.3643,-0.3623,-0.3618,-0.3604,-0.3569,-0.3563,-0.3591,-0.3535,-0.3527,-0.349,-0.3478,-0.3493,-0.349,-0.3393,-0.3392,-0.3391,-0.3399,0,0,0,0,0,0,-0.3745,-0.3733,-0.3722,-0.3685,-0.3673,-0.3622,-0.3623,-0.3617,-0.3598,-0.3597,-0.3559,-0.3553,-0.3535,-0.3496,-0.3487,-0.3474,-0.3487,-0.3394,-0.3393,-0.3392,-0.3399,-0.3398,-0.3397,0,0,0,0,0,-0.3748,-0.3726,-0.3721,-0.3712,-0.3658,-0.3621,-0.3614,-0.3594,-0.3597,-0.3585,-0.3563,-0.3555,-0.3481,-0.3492,-0.3482,-0.3468,-0.3395,-0.3393,-0.3392,-0.34,-0.3398,-0.3397,0,0,0,0,0,0,-0.376,-0.3721,-0.3715,-0.368,-0.3654,-0.3618,-0.3601,-0.3593,-0.3565,-0.3565,-0.3541,-0.3533,-0.3498,-0.3479,-0.3492,-0.3434,-0.3438,-0.3434,-0.3447,-0.3445,-0.3444,-0.3449,-0.3485,0,0,0,0,0,-0.3759,-0.3734,-0.37,-0.3672,-0.366,-0.3633,-0.3616,-0.3604,-0.3575,-0.3564,-0.3539,-0.3511,-0.3482,-0.3463,-0.3434,-0.3397,-0.3388,-0.3382,-0.3381,-0.338,-0.3377,-0.3355,-0.3352,-0.3385,-0.3385,-0.3385,0,0,-0.3755,-0.3731,-0.3716,-0.3674,-0.3652,-0.3626,-0.3624,-0.3596,-0.3575,-0.3559,-0.3524,-0.3504,-0.3471,-0.3435,-0.3417,-0.3418,-0.3365,-0.3378,-0.3377,-0.3374,-0.3353,-0.335,-0.3347,-0.3384,-0.3384,-0.3385,0,0,-0.3736,-0.3715,-0.3689,-0.3668,-0.3636,-0.3618,-0.3612,-0.3577,-0.3564,-0.3528,-0.3516,-0.3491,-0.3441,-0.3417,-0.3399,-0.3371,-0.3362,-0.3362,-0.3355,-0.3334,-0.3331,-0.3329,-0.3317,-0.3314,-0.3359,-0.3359,-0.3359,0,-0.3735,-0.3696,-0.3677,-0.3649,-0.3631,-0.3617,-0.359,-0.3569,-0.3529,-0.3516,-0.3518,-0.3455,-0.3431,-0.3389,-0.3382,-0.3368,-0.3359,-0.3366,-0.3333,-0.333,-0.3328,-0.3317,-0.3313,-0.3359,-0.3359,-0.3359,-0.3359,0,-0.3696,-0.3669,-0.3652,-0.3614,-0.3594,-0.3567,-0.3543,-0.3524,-0.3513,-0.3495,-0.3458,-0.343,-0.3395,-0.3384,-0.3372,-0.3339,-0.334,-0.3338,-0.3341,-0.3325,-0.3314,-0.331,-0.3359,-0.3359,-0.3359,-0.3359,0,0,-0.3681,-0.3634,-0.3628,-0.3611,-0.3574,-0.3552,-0.3524,-0.3491,-0.3474,-0.3447,-0.3422,-0.338,-0.3378,-0.3357,-0.3343,-0.3325,-0.3303,-0.3325,-0.3323,-0.3321,-0.3263,-0.3264,-0.326,-0.3297,-0.3296,-0.3296,-0.3266,0,-0.3656,-0.3606,-0.3589,-0.3547,-0.3521,-0.3507,-0.3483,-0.3457,-0.3439,-0.3413,-0.3393,-0.3364,-0.3363,-0.3351,-0.3332,-0.331,-0.3291,-0.3312,-0.3272,-0.3271,-0.328,-0.3255,-0.3256,-0.3229,-0.3261,-0.3261,-0.326,0,-0.362,-0.3593,-0.355,-0.3516,-0.3504,-0.3483,-0.345,-0.3427,-0.3397,-0.3385,-0.3362,-0.3349,-0.3318,-0.3324,-0.328,-0.3295,-0.3277,-0.3264,-0.3262,-0.3257,-0.3264,-0.3247,-0.322,-0.3215,-0.3254,-0.3254,-0.3255,0,-0.3612,-0.3565,-0.3533,-0.3519,-0.3479,-0.3464,-0.3446,-0.3417,-0.3398,-0.337,-0.3357,-0.3325,-0.3307,-0.3282,-0.326,-0.3267,-0.3218,-0.3222,-0.3206,-0.3207,-0.3196,-0.3196,-0.3164,-0.3186,-0.3187,-0.3187,-0.3187,0,-0.3586,-0.3559,-0.3529,-0.3509,-0.3479,-0.3458,-0.3428,-0.341,-0.3384,-0.3359,-0.3345,-0.3322,-0.3296,-0.3269,-0.3251,-0.3217,-0.3209,-0.3198,-0.3193,-0.3198,-0.32,-0.3186,-0.3187,-0.3185,-0.3186,-0.3186,-0.3186,0,-0.3572,-0.3551,-0.3514,-0.348,-0.3471,-0.345,-0.342,-0.3399,-0.3381,-0.335,-0.3341,-0.3312,-0.328,-0.3256,-0.3214,-0.3202,-0.3165,-0.3161,-0.3176,-0.3173,-0.3158,-0.3159,-0.3114,-0.3107,-0.3136,-0.3136,-0.3135,0,-0.3556,-0.3535,-0.3499,-0.3482,-0.3465,-0.3438,-0.3418,-0.3397,-0.3377,-0.3342,-0.3325,-0.3292,-0.3264,-0.3213,-0.3187,-0.3154,-0.3149,-0.3135,-0.3144,-0.3149,-0.3147,-0.3148,-0.3146,-0.3134,-0.3134,-0.3133,-0.3133,0,-0.3529,-0.352,-0.3493,-0.3463,-0.344,-0.3415,-0.3389,-0.3376,-0.335,-0.3328,-0.3296,-0.3274,-0.3231,-0.3198,-0.3163,-0.3143,-0.3133,-0.3131,-0.3125,-0.313,-0.3139,-0.3133,-0.3171,-0.3132,-0.3132,-0.3132,-0.3132,-0.3132,-0.3513,-0.3494,-0.3465,-0.3436,-0.3415,-0.3391,-0.337,-0.3349,-0.3322,-0.3286,-0.3275,-0.3241,-0.3211,-0.3163,-0.3143,-0.3115,-0.3115,-0.3107,-0.3105,-0.3103,-0.3103,-0.3144,-0.3109,-0.3109,-0.3109,-0.3109,-0.3109,0,-0.3485,-0.3466,-0.3439,-0.3404,-0.3381,-0.3375,-0.3346,-0.3327,-0.3297,-0.327,-0.3244,-0.3205,-0.3173,-0.3145,-0.3111,-0.3094,-0.3088,-0.3085,-0.3086,-0.3081,-0.3105,-0.3113,-0.309,-0.309,-0.309,-0.309,-0.309,-0.309,-0.3467,-0.3434,-0.3422,-0.3378,-0.3358,-0.3326,-0.331,-0.3287,-0.3266,-0.3224,-0.3198,-0.318,-0.3152,-0.3116,-0.3086,-0.3078,-0.3066,-0.3064,-0.3055,-0.3078,-0.308,-0.3082,-0.3089,-0.3062,-0.3062,-0.3034,-0.3033,-0.3033]},{"header":{"parameterUnit":"m.s-1","parameterCategory":1,"la1":30.2991,"la2":30.254,"lo1":-89.0895,"lo2":-89.0444,"dy":0.0017,"dx":0.0017,"nx":28,"ny":28,"refTime":"2025-03-13T03:00:00:Z","depth":0,"parameterNumber":3,"parameterNumberName":"V-component_of_WINDS"},"data":[0,0,0,0,0,0,0,0,0,0,0,0,0,0,0,0,0,0,0,0,0,0,0,0,0,0,0,0,0,0,0,0,0,0,0,0,0,0,0,0,0,0,0,0,0,0,0,0,0,0,0,0,0,0,0,0,0,0,4.0724,4.0723,0,4.0671,4.067,4.067,4.0632,4.0632,4.0632,4.0632,4.0574,4.0572,4.0571,0,0,0,0,0,0,0,0,0,0,0,0,0,4.0791,4.079,4.0724,4.0723,4.0723,4.0671,4.067,4.067,4.0632,4.0632,4.0632,4.0631,4.0574,4.0573,4.0571,0,0,0,0,0,0,0,0,0,0,0,0,0,4.0753,4.079,4.0724,4.0698,4.0695,4.0671,4.067,4.0669,4.0633,4.0632,4.0632,4.0631,4.0575,4.0573,4.0571,4.0567,0,0,4.0565,4.0564,0,0,0,0,0,0,0,0,4.0755,4.075,4.0703,4.07,4.0697,4.0658,4.0673,4.0635,4.0633,4.0656,4.0632,4.0631,4.0602,4.0598,4.0588,4.0565,4.0562,4.0565,4.0564,4.0563,4.0562,0,0,0,0,0,0,0,4.0758,4.0752,4.0703,4.0702,4.0698,4.0688,4.0682,4.0665,4.0632,4.0654,4.0651,4.0646,4.06,4.059,4.0587,4.0561,4.0565,4.0563,4.0562,4.0561,4.0535,4.0535,0,0,0,0,0,0,4.0765,4.0755,4.0704,4.0701,4.0725,4.0688,4.0681,4.0671,4.0632,4.0626,4.0646,4.0644,4.0594,4.0589,4.0585,4.058,4.0563,4.0561,4.056,4.0534,4.0535,4.0535,0,0,0,0,0,0,4.0766,4.0761,4.0707,4.0727,4.072,4.0687,4.0676,4.067,4.066,4.0626,4.062,4.0643,4.0593,4.0587,4.0573,4.0577,4.056,4.0558,4.0534,4.0534,4.0535,4.0569,0,0,0,0,0,0,4.0768,4.0761,4.076,4.0728,4.0719,4.0696,4.0676,4.0669,4.0657,4.0654,4.0621,4.0615,4.0593,4.0576,4.0571,4.0574,4.0557,4.0533,4.0534,4.0535,4.0567,4.057,4.0573,0,0,0,0,0,4.0771,4.077,4.076,4.0754,4.0716,4.0696,4.0691,4.0667,4.0658,4.0656,4.0635,4.0616,4.0578,4.0575,4.0569,4.0571,4.0533,4.0534,4.0535,4.0565,4.057,4.0573,0,0,0,0,0,0,4.0802,4.0765,4.0754,4.0743,4.0723,4.069,4.0687,4.0671,4.0653,4.0651,4.062,4.0613,4.0602,4.0585,4.0582,4.0567,4.0553,4.0553,4.0578,4.0582,4.0585,4.0589,4.0555,0,0,0,0,0,4.0808,4.0796,4.0764,4.0757,4.0748,4.072,4.071,4.0693,4.0671,4.0662,4.0639,4.0618,4.0601,4.0591,4.0573,4.0565,4.0557,4.0564,4.0567,4.057,4.057,4.0566,4.0569,4.0538,4.0538,4.0538,0,0,4.0819,4.0798,4.0791,4.0763,4.0746,4.0734,4.0713,4.07,4.0691,4.066,4.0645,4.0628,4.0602,4.0592,4.0585,4.0577,4.0577,4.0571,4.0573,4.0572,4.0567,4.057,4.0573,4.0539,4.0539,4.0539,0,0,4.0833,4.0816,4.0809,4.0794,4.0769,4.075,4.0749,4.0719,4.0707,4.0692,4.067,4.0658,4.0629,4.0613,4.06,4.0612,4.0595,4.0607,4.0623,4.062,4.0622,4.0624,4.063,4.0632,4.0607,4.0608,4.0608,0,4.085,4.0832,4.0807,4.0797,4.0786,4.076,4.0753,4.0738,4.0709,4.0701,4.0693,4.0659,4.0639,4.0625,4.0628,4.0619,4.0617,4.061,4.0624,4.0626,4.0627,4.0632,4.0634,4.0609,4.0609,4.0609,4.0609,0,4.0854,4.0842,4.0839,4.0814,4.0802,4.0793,4.0768,4.0759,4.0744,4.0727,4.0713,4.0689,4.0668,4.0663,4.0647,4.0647,4.0643,4.063,4.0615,4.0632,4.0636,4.0638,4.0612,4.0611,4.0611,4.061,0,0,4.0884,4.0848,4.0848,4.0837,4.0809,4.0799,4.079,4.077,4.0764,4.0745,4.0737,4.0715,4.0703,4.069,4.0672,4.0669,4.0682,4.0656,4.0655,4.0662,4.0682,4.0693,4.0695,4.067,4.0671,4.0671,4.0685,0,4.0895,4.0878,4.0858,4.0848,4.0837,4.0813,4.0806,4.0788,4.0772,4.076,4.0742,4.0727,4.0713,4.0705,4.0701,4.0681,4.0685,4.068,4.0663,4.0662,4.067,4.0697,4.0707,4.0721,4.0686,4.0686,4.0686,0,4.0904,4.0889,4.0879,4.0855,4.0849,4.0843,4.0825,4.0814,4.0794,4.0782,4.0769,4.0751,4.074,4.0728,4.0713,4.071,4.0702,4.0692,4.0692,4.0689,4.0675,4.0695,4.0725,4.0727,4.0688,4.0688,4.0688,0,4.0929,4.0906,4.0897,4.0888,4.0859,4.0856,4.0843,4.0823,4.0814,4.0798,4.0792,4.0774,4.0764,4.0752,4.0729,4.0722,4.0718,4.0703,4.0709,4.071,4.0708,4.0709,4.0738,4.0703,4.0703,4.0703,4.0703,0,4.0943,4.0937,4.0908,4.0903,4.0897,4.0874,4.0868,4.0854,4.0836,4.0828,4.0806,4.0799,4.077,4.0759,4.0742,4.0734,4.0729,4.072,4.0715,4.0722,4.0723,4.0716,4.0715,4.0704,4.0703,4.0703,4.0703,0,4.0968,4.0948,4.0938,4.0913,4.0906,4.0903,4.0881,4.0875,4.0859,4.0849,4.0846,4.082,4.0807,4.0784,4.0763,4.0751,4.0747,4.0739,4.0754,4.0751,4.0759,4.0759,4.0784,4.0787,4.0751,4.0751,4.0751,0,4.0978,4.0974,4.095,4.0943,4.0933,4.0922,4.0913,4.0891,4.0882,4.0861,4.0858,4.0844,4.0831,4.0811,4.079,4.0775,4.0766,4.0776,4.0764,4.0771,4.0768,4.0768,4.0768,4.0779,4.078,4.078,4.078,0,4.0999,4.099,4.0979,4.0965,4.0955,4.0943,4.0929,4.0925,4.0899,4.0891,4.0878,4.0869,4.0849,4.0835,4.0818,4.0805,4.0789,4.0785,4.0786,4.0792,4.0802,4.0798,4.0763,4.0784,4.0784,4.0783,4.0783,4.0783,4.1017,4.1013,4.0997,4.0985,4.0973,4.0962,4.0956,4.0941,4.093,4.0913,4.0901,4.0889,4.0871,4.0847,4.0835,4.0826,4.0818,4.0819,4.0819,4.0819,4.0823,4.0804,4.0822,4.0822,4.0822,4.0822,4.0822,0,4.1037,4.1026,4.1016,4.0999,4.0991,4.0978,4.0963,4.0957,4.0948,4.0933,4.0922,4.0908,4.0895,4.0875,4.0861,4.0858,4.085,4.0855,4.0855,4.0852,4.083,4.0831,4.0861,4.0861,4.0861,4.0861,4.0861,4.0861,4.1047,4.104,4.103,4.1018,4.1007,4.0997,4.0989,4.0979,4.0968,4.0954,4.0944,4.0932,4.0915,4.09,4.0888,4.0883,4.0879,4.0886,4.0878,4.0857,4.0854,4.085,4.0851,4.0885,4.0885,4.0902,4.0902,4.0902]}]]